Date,TemperatureHighF,TemperatureAvgF,TemperatureLowF,DewpointHighF,DewpointAvgF,DewpointLowF,HumidityHigh,HumidityAvg,HumidityLow,PressureMaxIn,PressureMinIn,WindSpeedMaxMPH,WindSpeedAvgMPH,GustSpeedMaxMPH,PrecipitationSumIn
2013-1-1,69.1,59.0,50.0,64.6,56.8,48.4,96,93,85,30.11,29.89,14,2,16,0.00
2013-1-2,49.8,45.5,40.6,48.4,42.8,38.5,98,90,84,30.25,30.09,11,2,12,0.00
2013-1-3,54.7,43.7,37.8,38.8,35.2,30.9,93,73,51,30.40,30.23,12,1,14,0.01
2013-1-4,59.5,46.7,35.8,36.3,32.6,30.2,81,60,36,30.48,30.33,9,1,11,0.00
2013-1-5,53.8,48.9,44.6,44.2,37.3,33.4,87,65,52,30.37,30.22,11,1,12,0.00
2013-1-6,52.9,47.5,43.2,48.2,45.1,41.4,96,92,82,30.30,30.18,8,1,10,0.01
2013-1-7,58.8,48.6,37.9,45.5,40.2,36.1,94,75,44,30.33,30.16,15,3,16,0.00
2013-1-8,55.0,51.6,50.2,49.3,44.1,42.1,81,75,69,30.19,30.11,14,4,14,0.00
2013-1-10,64.8,64.7,64.6,63.9,63.8,63.7,97,97,97,30.04,30.01,6,2,6,0.01
2013-2-15,69.3,60.2,41.4,44.8,42.6,39.2,93,54,38,30.19,30.08,12,2,16,0.00
2013-2-16,54.5,48.9,40.8,42.1,31.2,21.7,73,53,29,30.33,30.19,19,4,21,0.00
2013-2-17,63.5,49.0,35.2,42.1,35.1,27.0,78,60,39,30.35,30.20,12,2,14,0.01
2013-2-18,65.1,56.8,45.5,61.5,50.7,39.6,89,80,71,30.22,29.95,20,4,25,0.00
2013-2-19,69.3,60.3,50.4,62.2,45.2,28.0,96,63,27,30.24,29.93,18,2,21,0.00
2013-2-20,54.9,47.3,43.2,34.3,31.0,27.7,62,54,36,30.25,30.12,21,5,24,0.00
2013-2-21,72.1,67.8,57.6,68.9,64.1,50.7,94,88,78,29.94,29.75,21,7,26,0.00
2013-2-22,71.2,63.8,54.5,69.1,56.5,49.8,94,78,58,29.99,29.85,14,2,17,0.00
2013-2-23,62.8,56.5,53.4,55.6,52.8,50.2,95,88,74,29.97,29.87,9,0,9,0.01
2013-2-24,68.7,57.5,46.4,58.5,52.2,43.9,95,83,66,29.98,29.73,17,4,25,0.00
2013-2-25,66.4,62.5,59.5,65.5,60.2,44.8,97,93,58,29.76,29.40,26,6,26,0.00
2013-2-26,61.3,53.6,45.7,46.0,40.5,35.8,80,62,50,29.93,29.57,17,2,23,0.01
2013-2-27,71.8,58.0,46.6,52.3,45.5,42.3,88,66,36,30.04,29.92,11,0,14,0.00
2013-2-28,57.7,50.4,45.0,43.0,35.4,32.5,71,57,46,30.17,30.04,16,2,16,0.00
2013-3-1,61.0,50.4,41.2,38.5,35.4,31.1,82,58,37,30.18,30.07,21,2,22,0.00
2013-3-2,49.5,41.9,34.5,34.3,30.2,26.8,84,64,47,30.27,30.17,16,2,19,0.00
2013-3-3,58.6,43.3,29.1,38.1,30.4,25.5,92,63,34,30.31,30.14,12,0,12,1.44
2013-3-4,71.4,57.9,41.4,58.3,49.2,36.9,90,74,56,30.14,29.91,23,4,25,0.01
2013-3-5,75.6,66.0,56.5,64.4,53.6,36.1,91,67,35,30.20,29.90,18,3,21,0.00
2013-3-6,65.5,54.2,41.7,36.5,30.6,26.6,58,41,28,30.35,30.21,14,2,17,0.00
2013-3-7,63.7,51.0,39.0,41.5,36.4,31.8,76,58,41,30.36,30.22,12,1,14,0.00
2013-3-8,70.2,56.3,43.0,48.9,42.2,36.5,92,63,33,30.30,30.16,11,1,14,0.00
2013-3-9,70.0,62.1,52.3,61.0,55.0,47.1,89,78,70,30.20,29.94,21,4,21,0.00
2013-3-10,78.6,69.4,60.8,66.9,62.7,58.6,93,80,61,29.96,29.83,29,4,31,0.00
2013-3-11,62.8,52.5,44.2,58.8,44.9,38.8,95,78,46,30.05,29.89,19,3,20,0.43
2013-3-12,70.3,54.8,39.7,43.3,39.1,35.4,88,59,35,30.23,30.04,11,1,12,0.34
2013-3-13,71.4,57.8,44.1,40.6,34.7,23.2,79,46,18,30.41,30.22,15,2,19,0.01
2013-3-14,72.1,56.4,43.2,44.2,32.6,21.9,65,42,27,30.45,30.29,16,1,17,0.00
2013-3-15,78.4,60.8,45.3,53.2,46.9,42.6,91,64,31,30.32,30.12,14,1,20,0.00
2013-3-16,76.6,64.5,51.6,59.5,54.4,49.1,93,72,48,30.15,29.94,15,2,21,0.00
2013-3-17,79.2,67.9,59.0,66.6,61.3,55.9,93,81,57,29.98,29.80,18,2,19,0.00
2013-3-18,85.3,74.0,68.7,69.4,67.3,65.5,93,81,57,29.89,29.75,15,1,17,0.00
2013-3-19,76.5,67.1,55.2,66.7,53.0,42.6,85,62,38,30.03,29.88,18,4,20,0.00
2013-3-20,74.7,63.0,54.1,56.3,42.5,27.3,84,51,23,30.18,29.98,14,1,17,0.01
2013-3-21,64.4,56.8,48.7,46.2,36.7,27.9,67,48,32,30.06,29.84,17,3,18,0.00
2013-3-22,79.5,66.3,57.0,69.1,60.1,46.2,91,81,67,29.90,29.73,13,3,15,0.01
2013-3-23,70.3,67.8,65.5,69.1,66.2,64.0,97,95,91,29.81,29.56,12,1,13,0.00
2013-3-24,70.2,62.4,50.7,68.9,51.8,32.5,96,72,31,30.01,29.59,23,4,30,0.01
2013-3-25,60.6,50.2,38.5,34.7,29.0,23.4,76,47,24,30.26,30.01,17,3,21,0.00
2013-3-26,59.7,48.8,37.6,29.8,27.0,23.2,64,44,31,30.42,30.26,16,2,18,0.00
2013-3-27,67.1,50.0,35.4,37.2,31.3,28.6,81,52,27,30.45,30.26,12,1,13,0.00
2013-3-28,70.9,55.8,41.4,48.0,41.3,36.9,89,62,34,30.36,30.22,12,1,13,0.00
2013-3-29,77.0,61.3,47.1,55.9,49.5,43.2,89,67,40,30.32,30.17,17,1,17,0.00
2013-3-30,77.2,65.4,54.9,61.3,56.9,51.8,94,76,49,30.20,30.01,15,1,19,0.00
2013-3-31,79.5,63.9,58.5,66.7,60.6,57.2,97,90,63,30.05,29.88,19,1,29,0.05
2013-4-1,79.5,65.5,56.5,63.1,58.3,55.4,98,80,46,30.09,29.94,11,0,12,0.11
2013-4-2,78.4,65.6,54.5,62.6,57.9,52.0,93,78,48,30.10,29.96,16,3,19,0.01
2013-4-3,66.9,62.2,54.3,64.9,59.8,51.3,97,92,85,30.02,29.72,25,2,32,0.01
2013-4-4,58.8,53.2,49.6,52.3,49.7,45.9,95,88,75,30.06,29.91,16,2,17,0.01
2013-4-5,72.5,56.7,47.8,54.0,48.1,43.7,88,74,49,30.19,30.05,13,1,14,0.00
2013-4-6,73.6,60.8,47.7,57.2,51.8,45.5,96,74,50,30.15,30.03,18,2,18,0.01
2013-4-7,78.4,66.6,55.2,62.8,58.7,52.9,93,77,56,30.08,29.95,16,2,16,0.00
2013-4-8,81.5,70.6,60.6,67.5,63.2,58.6,95,79,58,30.00,29.88,22,3,24,0.01
2013-4-9,84.9,76.9,71.4,73.4,70.9,67.3,91,82,67,29.98,29.88,21,5,23,0.00
2013-4-10,84.4,77.4,73.8,73.6,71.4,69.6,89,82,67,29.95,29.80,24,6,24,0.00
2013-4-11,75.6,67.2,55.0,72.5,63.2,50.5,96,87,74,29.84,29.67,23,3,23,0.00
2013-4-12,80.2,62.5,47.1,52.7,49.2,45.1,95,67,31,30.00,29.83,14,0,14,0.01
2013-4-13,76.5,66.3,54.0,57.4,49.8,46.2,77,57,37,30.03,29.86,18,3,22,0.00
2013-4-14,75.6,65.6,57.9,64.6,60.4,55.9,98,84,66,29.88,29.73,20,3,21,0.00
2013-4-15,78.8,70.4,64.0,73.6,67.9,62.1,97,92,83,29.95,29.80,12,2,15,0.01
2013-4-16,85.3,77.4,73.0,75.2,72.9,71.6,96,87,68,30.06,29.94,17,3,20,0.01
2013-4-17,85.5,78.2,73.2,75.2,72.6,70.7,93,84,70,30.06,29.91,19,5,22,0.01
2013-4-18,84.4,77.7,62.6,73.8,71.6,59.7,91,82,70,29.93,29.76,21,5,32,0.01
2013-4-19,64.6,55.6,48.9,59.9,46.6,40.8,95,74,46,30.18,29.86,16,3,19,0.00
2013-4-20,71.8,56.5,42.6,48.9,43.4,39.0,92,65,37,30.27,30.11,16,2,18,0.01
2013-4-21,73.6,61.5,48.0,54.3,49.1,43.9,90,66,44,30.21,30.09,13,2,17,0.00
2013-4-22,79.3,66.5,53.4,65.3,56.5,50.9,92,73,48,30.13,29.99,13,2,16,0.00
2013-4-23,84.2,74.0,67.3,70.2,67.1,64.4,92,80,59,30.06,29.95,20,2,21,0.00
2013-4-24,72.1,67.2,59.2,69.1,63.9,55.0,97,89,80,30.20,29.98,14,1,15,0.01
2013-4-25,77.2,63.3,53.8,59.7,53.2,48.6,91,72,42,30.32,30.19,15,1,15,0.00
2013-4-26,78.4,68.2,57.9,66.9,58.3,48.7,87,71,60,30.27,30.18,13,2,15,0.01
2013-4-27,84.9,74.5,65.8,70.3,66.4,63.7,95,78,51,30.20,30.01,20,1,20,0.00
2013-4-28,81.0,71.4,65.8,71.2,67.4,63.0,97,88,64,30.06,29.92,15,0,15,0.01
2013-4-29,82.9,71.7,60.4,67.3,62.5,58.6,96,75,49,29.99,29.85,10,1,13,0.01
2013-4-30,74.7,69.7,66.6,70.7,66.9,64.0,96,91,83,29.91,29.83,13,1,16,0.00
2013-5-1,81.0,70.9,66.6,73.0,67.2,64.8,97,89,65,29.90,29.80,14,1,15,0.01
2013-5-2,80.6,70.2,64.8,70.5,66.0,62.4,96,87,65,29.96,29.86,15,1,16,0.00
2013-5-3,68.7,57.4,47.8,67.6,54.1,44.1,97,89,74,30.06,29.90,20,3,20,0.01
2013-5-4,74.3,58.0,41.7,51.6,45.5,39.9,95,68,34,30.05,29.87,12,0,14,0.00
2013-5-5,68.7,60.1,51.1,54.0,47.0,42.8,85,64,45,30.05,29.88,18,2,18,0.00
2013-5-6,78.6,63.6,48.2,57.2,51.0,45.3,91,66,43,30.06,29.93,15,1,17,0.00
2013-5-7,86.0,70.9,56.8,62.1,58.5,54.3,93,68,40,30.05,29.97,11,0,13,0.01
2013-5-8,85.3,72.2,59.4,65.8,61.4,57.0,93,71,44,30.11,30.01,11,0,13,0.00
2013-5-9,83.8,73.5,64.2,69.6,66.0,61.9,93,79,56,30.09,29.99,15,1,21,0.00
2013-5-10,73.9,68.7,64.4,71.1,66.6,62.6,96,93,87,30.06,29.85,30,2,30,0.01
2013-5-11,80.2,70.3,63.1,70.2,66.3,62.1,98,88,70,30.10,29.94,15,0,20,0.05
2013-5-12,85.1,71.8,61.0,65.7,61.4,55.0,95,72,45,30.16,30.05,8,0,12,0.07
2013-5-13,81.9,68.0,55.9,56.8,50.8,45.3,75,56,33,30.30,30.15,13,1,18,0.01
2013-5-14,87.6,71.9,57.0,63.7,58.0,54.7,93,65,34,30.28,30.14,11,0,14,0.01
2013-5-15,82.9,71.5,60.3,67.3,62.2,57.7,92,74,52,30.19,30.01,14,1,15,0.01
2013-5-16,84.6,74.3,64.2,68.7,65.3,61.5,93,75,52,30.04,29.89,16,2,19,0.01
2013-5-17,88.0,78.6,71.1,73.8,71.4,68.5,95,80,61,30.01,29.93,13,1,17,0.00
2013-5-18,89.4,80.1,73.6,74.3,72.1,69.8,94,78,54,30.06,29.97,12,1,14,0.01
2013-5-19,89.4,80.0,72.9,75.6,73.0,70.2,95,80,61,29.99,29.92,16,2,23,0.00
2013-5-20,90.1,81.3,75.4,76.3,74.5,73.0,93,81,61,29.99,29.88,13,2,18,0.01
2013-5-21,90.0,81.4,75.0,75.7,74.0,72.9,94,79,61,29.96,29.79,21,2,21,0.00
2013-5-22,80.8,74.6,67.1,73.8,70.8,65.7,96,88,74,30.00,29.86,13,1,18,0.01
2013-5-23,91.9,77.2,66.7,77.5,71.8,63.1,97,85,59,30.09,29.95,21,1,23,0.01
2013-5-24,91.8,78.8,66.6,77.7,71.1,65.3,98,79,57,30.14,30.00,11,0,16,0.00
2013-5-25,86.4,77.8,68.5,71.4,66.9,59.7,84,70,55,30.22,30.11,12,2,15,0.01
2013-5-26,86.0,77.5,69.8,71.2,68.5,66.7,92,75,56,30.17,30.08,13,2,14,0.00
2013-5-27,89.4,78.5,68.5,72.3,69.1,65.7,91,74,55,30.12,29.99,15,1,16,0.00
2013-5-28,86.7,78.1,70.3,73.2,70.0,66.7,94,77,59,30.06,29.96,14,2,16,0.00
2013-5-29,85.5,77.8,72.3,77.0,72.4,67.1,93,84,74,30.00,29.91,18,3,20,0.01
2013-5-30,86.7,79.9,74.7,78.3,74.6,72.7,95,85,67,29.98,29.90,19,3,21,0.00
2013-5-31,87.8,80.2,74.8,79.0,75.4,73.2,95,86,72,29.99,29.91,17,2,17,0.00
2013-6-1,93.6,82.4,74.5,77.5,75.1,72.9,95,80,57,29.96,29.88,11,1,14,0.01
2013-6-2,87.4,79.0,70.0,76.6,73.9,68.0,94,85,67,30.03,29.85,15,1,21,0.00
2013-6-3,95.4,83.6,73.6,76.6,74.3,71.2,93,75,52,29.93,29.82,7,0,8,0.00
2013-6-4,92.5,83.7,75.0,77.7,75.3,72.5,93,77,57,29.93,29.83,13,1,15,0.00
2013-6-5,90.9,82.8,75.9,78.1,75.9,73.8,93,81,62,29.91,29.78,17,2,17,0.00
2013-6-6,96.3,83.0,72.9,78.4,74.2,69.6,94,76,45,29.88,29.71,12,0,13,0.00
2013-6-7,90.5,79.3,70.5,74.1,71.6,68.7,97,79,55,29.89,29.79,9,0,12,0.01
2013-6-8,90.7,80.3,72.0,74.8,71.6,68.7,90,76,55,29.95,29.87,15,1,16,0.00
2013-6-9,91.2,79.2,72.0,76.5,73.0,70.0,96,83,57,29.97,29.86,11,1,13,0.00
2013-6-10,91.9,82.0,74.1,79.5,76.0,72.3,96,83,64,30.01,29.93,10,0,12,0.00
2013-6-11,95.9,84.7,76.8,78.6,76.5,73.8,95,78,53,30.08,29.99,11,0,11,0.00
2013-6-12,96.4,85.4,76.3,78.6,76.2,73.4,95,76,51,30.09,29.99,11,0,12,0.00
2013-6-13,98.1,86.6,75.9,79.0,76.2,73.6,94,73,50,30.06,29.89,11,0,13,0.00
2013-6-14,100.9,88.3,79.2,82.0,77.9,72.3,90,73,52,29.95,29.84,12,1,15,0.00
2013-6-15,96.6,84.4,74.3,79.0,73.3,67.6,83,70,50,30.00,29.91,12,1,14,0.00
2013-6-16,96.8,86.4,77.5,79.7,77.4,75.2,94,76,56,30.04,29.95,10,0,13,0.00
2013-6-17,95.4,85.5,75.6,78.1,75.3,73.0,93,73,53,30.02,29.91,13,0,14,0.00
2013-6-18,95.7,85.5,76.5,77.4,74.8,70.7,91,72,52,30.01,29.88,14,0,16,0.00
2013-6-19,85.8,78.0,74.5,77.5,73.4,69.8,96,86,73,30.05,29.93,8,0,9,0.33
2013-6-20,94.1,81.5,74.1,80.2,75.2,70.9,96,82,54,30.12,30.01,14,0,14,0.13
2013-6-21,94.6,84.2,74.8,78.8,75.0,71.8,93,75,52,30.11,30.03,11,0,14,0.00
2013-6-22,92.5,82.7,75.0,77.4,75.0,72.5,93,78,56,30.09,29.99,15,1,15,0.00
2013-6-23,93.4,82.5,74.1,77.7,74.6,72.0,94,78,53,30.06,29.99,10,1,12,0.00
2013-6-24,89.6,81.8,75.9,79.7,75.4,72.1,93,82,63,30.13,30.02,15,1,18,0.13
2013-6-25,93.9,84.3,75.0,78.6,75.0,70.9,94,75,49,30.09,29.98,11,0,12,0.00
2013-6-26,97.2,85.3,74.1,78.4,74.7,71.6,93,72,50,30.05,29.93,9,0,10,0.00
2013-6-27,99.0,87.4,77.4,80.1,77.1,74.5,92,73,51,30.02,29.91,10,0,10,0.00
2013-6-28,98.1,87.7,79.5,79.5,77.6,76.3,91,74,51,29.95,29.77,15,1,16,0.00
2013-6-29,90.7,82.2,72.1,80.8,76.9,69.8,96,84,69,29.83,29.69,14,0,16,0.30
2013-6-30,96.3,86.0,75.4,79.5,71.2,61.0,96,66,33,29.80,29.71,16,1,18,0.00
2013-7-1,92.1,82.9,71.6,70.9,67.9,66.0,84,62,46,29.92,29.80,12,0,14,0.00
2013-7-2,91.6,81.9,71.2,73.0,68.6,66.2,85,65,48,29.99,29.91,10,0,11,0.00
2013-7-3,90.0,78.5,73.0,74.8,70.3,66.6,89,76,54,30.02,29.93,16,1,20,0.00
2013-7-4,93.0,81.6,72.1,75.6,72.4,69.3,92,75,53,29.97,29.90,9,0,12,0.00
2013-7-5,84.9,79.0,74.3,76.8,73.7,70.7,93,84,74,30.01,29.94,18,2,23,0.04
2013-7-6,88.2,78.7,72.3,76.6,73.5,70.2,94,85,66,30.00,29.93,11,1,14,0.00
2013-7-7,85.6,78.0,73.9,78.4,74.7,72.7,96,90,73,30.09,29.96,11,1,12,0.57
2013-7-8,92.7,79.3,73.2,79.2,74.8,71.8,97,87,60,30.16,30.05,13,1,17,0.58
2013-7-9,93.0,83.4,74.7,79.0,75.6,73.0,96,79,58,30.19,30.05,10,0,13,0.00
2013-7-10,97.3,86.3,76.6,79.2,76.9,74.7,95,75,51,30.11,29.96,13,0,13,0.00
2013-7-11,95.7,80.9,73.6,82.2,75.8,71.8,96,85,58,30.00,29.91,15,1,25,0.47
2013-7-12,98.8,84.1,73.4,80.6,74.8,71.8,96,76,44,29.95,29.83,10,0,10,0.43
2013-7-13,94.8,84.5,74.5,75.2,71.7,68.5,86,67,47,29.94,29.86,9,0,11,0.00
2013-7-14,90.3,78.7,73.2,76.1,72.7,69.6,94,83,59,29.99,29.89,17,1,17,0.15
2013-7-15,87.6,77.5,73.6,78.8,74.2,72.1,96,90,71,30.10,29.98,13,1,18,0.08
2013-7-16,84.9,78.5,73.4,78.1,75.0,72.1,96,89,77,30.16,30.06,13,2,15,0.15
2013-7-17,91.2,82.4,75.7,79.2,75.2,70.3,95,80,55,30.21,30.09,13,2,16,0.00
2013-7-18,90.7,82.0,73.2,78.3,74.7,70.5,94,80,56,30.17,29.99,20,0,24,0.12
2013-7-19,92.5,83.5,74.5,77.5,74.1,70.5,93,75,52,30.07,29.93,14,1,15,0.00
2013-7-20,92.7,83.4,75.7,77.7,75.1,71.1,93,77,59,30.00,29.91,14,0,15,0.00
2013-7-21,84.7,78.9,74.1,77.7,74.7,72.3,95,87,74,30.09,29.97,13,1,15,0.15
2013-7-22,92.5,81.6,75.2,81.3,76.8,72.7,96,86,69,30.06,29.98,10,0,14,0.12
2013-7-23,95.4,85.1,77.0,80.1,77.4,75.4,96,80,55,30.06,29.92,13,0,13,0.00
2013-7-24,94.6,85.7,78.6,79.2,77.1,73.9,91,77,57,29.99,29.88,12,0,15,0.00
2013-7-25,97.2,85.8,77.0,78.4,75.3,73.0,89,72,52,30.04,29.91,9,0,10,0.00
2013-7-26,95.9,83.9,74.1,77.5,73.8,69.4,89,73,53,30.06,29.94,9,0,12,0.02
2013-7-27,82.9,78.9,73.6,81.0,76.7,71.2,97,93,86,29.97,29.85,20,0,20,0.91
2013-7-28,95.2,82.5,72.9,78.3,75.2,72.0,98,81,56,30.00,29.89,8,0,9,1.18
2013-7-29,95.7,85.0,75.9,80.1,76.7,73.9,95,78,54,30.09,30.00,8,0,9,0.00
2013-7-30,96.4,86.0,77.4,80.1,77.2,73.4,93,76,55,30.15,30.05,9,0,11,0.00
2013-7-31,97.7,86.0,78.1,80.6,77.5,74.5,90,77,55,30.11,29.96,11,1,13,0.00
2013-8-1,97.3,86.2,78.3,80.4,77.1,70.2,91,76,54,30.04,29.91,13,1,16,0.00
2013-8-2,96.3,84.2,76.3,81.3,75.6,70.2,87,76,58,30.00,29.92,10,0,13,0.00
2013-8-3,99.3,85.5,75.7,81.3,77.3,73.9,95,78,48,30.06,29.98,8,0,11,0.00
2013-8-4,99.7,86.4,77.4,80.6,77.2,73.0,95,76,46,30.10,29.97,9,0,10,0.00
2013-8-5,98.8,86.2,77.7,80.8,77.4,74.5,94,77,51,30.06,29.94,13,1,13,0.00
2013-8-6,98.2,87.4,79.0,80.6,78.0,76.3,92,75,51,30.01,29.90,11,0,12,0.00
2013-8-7,99.7,86.9,78.4,80.4,77.4,74.7,93,76,49,29.99,29.87,9,0,12,0.00
2013-8-10,96.1,87.3,78.4,79.9,76.7,73.0,95,72,49,30.06,29.97,13,2,16,0.08
2013-8-11,87.6,80.8,76.6,79.2,76.4,74.1,96,87,70,30.12,30.04,19,0,19,0.39
2013-8-12,94.3,81.7,76.3,80.8,76.8,74.7,96,86,61,30.10,30.04,8,0,11,0.00
2013-10-2,85.3,80.4,76.3,75.2,74.2,73.4,92,82,71,30.01,29.94,11,2,12,0.00
2013-10-3,88.3,79.5,72.9,77.5,74.5,71.6,97,86,64,30.02,29.90,15,2,16,0.00
2013-10-4,87.1,79.0,73.9,77.5,74.5,72.3,95,87,68,30.01,29.92,20,2,22,0.01
2013-10-5,85.3,77.9,74.1,77.9,74.3,72.5,97,89,72,29.98,29.87,17,2,20,0.02
2013-10-6,80.8,73.4,64.2,73.4,67.7,53.1,96,83,62,29.98,29.84,15,1,20,0.09
2013-10-7,79.9,67.6,57.6,59.7,55.2,52.2,86,66,47,30.05,29.96,10,0,14,0.02
2013-10-8,81.9,68.0,56.8,60.3,56.8,53.1,88,69,46,30.06,29.98,9,0,11,0.00
2013-10-9,83.8,69.3,57.2,64.8,59.4,54.3,91,73,47,30.09,30.00,8,0,8,0.00
2013-10-10,83.5,72.0,65.5,69.1,65.5,60.8,96,81,56,30.11,29.97,8,0,10,0.00
2013-10-11,89.2,74.4,65.8,75.0,69.8,64.4,96,87,58,30.04,29.94,13,1,17,0.00
2013-10-12,92.5,78.0,69.1,75.7,71.0,67.5,96,81,50,30.11,29.96,12,1,14,0.02
2013-10-13,89.8,77.7,71.8,74.8,72.4,70.5,97,85,56,30.16,30.02,8,0,10,0.04
2013-10-14,86.2,76.9,70.0,71.8,68.1,65.3,92,76,53,30.11,29.99,14,1,14,0.04
2013-10-15,86.4,75.9,67.5,72.3,69.0,65.1,94,80,60,30.04,29.92,15,1,15,0.00
2013-10-16,81.9,75.5,69.8,74.5,71.0,67.6,94,86,75,30.00,29.89,13,0,13,0.00
2013-10-17,78.3,71.3,64.9,71.8,66.6,60.3,94,86,70,30.02,29.91,9,0,10,0.00
2013-10-18,73.9,66.3,58.3,63.3,59.2,55.4,92,79,61,30.06,29.92,11,0,13,0.00
2013-10-19,75.7,66.0,60.1,65.1,60.6,57.0,97,84,61,30.04,29.91,11,0,14,0.04
2013-10-20,78.3,63.6,53.6,59.9,55.2,50.0,92,76,47,30.09,29.97,9,0,10,0.02
2013-10-21,71.1,63.6,56.5,64.0,59.4,54.1,93,86,75,30.06,29.93,9,1,10,0.27
2013-10-22,80.8,69.3,61.7,67.1,62.6,57.6,93,80,57,30.02,29.93,15,1,16,0.14
2013-10-23,79.9,65.7,53.1,57.9,54.3,50.9,94,70,39,30.13,30.01,8,0,10,0.00
2013-10-24,82.8,65.0,50.7,60.3,53.7,47.8,91,70,37,30.22,30.12,9,0,9,0.00
2013-10-25,73.4,62.4,54.7,57.7,50.0,45.3,88,66,41,30.40,30.21,15,1,15,0.00
2013-10-26,77.5,61.3,47.3,58.6,49.3,40.5,83,66,45,30.33,30.16,9,0,11,0.00
2013-10-27,70.9,62.6,53.4,66.4,59.4,51.1,95,89,82,30.16,30.04,8,0,12,0.01
2013-10-28,84.0,71.6,61.9,70.2,65.1,59.9,96,81,56,30.17,30.05,10,1,12,0.01
2013-10-29,82.2,71.9,63.1,69.4,65.4,61.3,96,81,57,30.21,30.12,14,3,18,0.00
2013-10-30,80.4,72.6,66.6,70.7,67.6,64.6,96,85,69,30.19,30.02,19,2,19,0.00
2013-10-31,80.8,72.7,67.1,73.2,69.8,65.8,97,91,76,30.02,29.79,21,3,30,0.06
2013-11-1,77.9,66.7,56.8,66.6,60.0,53.6,97,81,50,29.94,29.83,12,1,12,0.11
2013-11-2,75.6,63.5,54.7,57.0,52.0,45.1,93,69,36,30.17,29.92,14,1,20,0.01
2013-11-3,66.4,56.0,45.9,49.5,45.9,41.9,88,70,47,30.25,30.11,15,1,16,0.02
2013-11-4,75.9,62.0,48.6,61.0,54.0,45.9,92,76,57,30.20,30.11,16,3,19,0.02
2013-11-5,73.0,67.6,62.6,65.8,62.2,57.4,92,83,75,30.18,30.09,22,5,28,0.02
2013-11-6,79.5,70.6,61.0,72.3,66.9,58.6,96,88,77,30.12,30.02,15,2,15,0.01
2013-11-7,70.5,60.2,50.5,69.3,51.6,42.3,96,75,47,30.33,30.08,16,2,18,0.01
2013-11-8,67.8,54.1,44.1,45.5,41.2,37.6,82,64,39,30.35,30.20,13,1,18,0.00
2013-11-9,75.4,59.6,46.0,58.8,50.4,41.7,88,73,54,30.25,30.14,9,0,10,0.00
2013-11-10,79.3,66.3,57.7,60.1,55.2,50.5,84,69,49,30.27,30.16,10,0,12,0.00
2013-11-11,77.5,63.0,52.0,58.1,52.7,48.2,88,71,48,30.25,30.12,8,0,10,0.00
2013-11-12,74.5,57.7,41.7,57.4,49.1,33.6,90,74,54,30.51,30.18,24,1,24,0.00
2013-11-13,59.4,44.9,33.6,33.6,29.5,24.8,75,57,30,30.56,30.41,14,1,20,0.00
2013-11-14,65.8,51.2,37.9,52.0,40.6,28.0,83,67,55,30.44,30.12,9,1,12,0.00
2013-11-15,77.4,64.7,56.7,67.6,59.4,51.6,94,83,71,30.12,29.95,10,1,12,0.00
2013-11-16,81.3,70.5,63.5,71.1,66.4,61.3,96,87,69,30.04,29.91,17,3,18,0.00
2013-11-17,80.4,74.4,70.3,76.1,72.1,68.5,97,93,84,29.97,29.86,15,1,15,0.00
2013-11-18,75.6,70.2,60.3,73.6,60.2,43.5,97,73,43,30.10,29.94,11,0,15,0.01
2013-11-19,67.6,57.3,50.7,44.1,39.8,34.2,71,53,30,30.17,30.05,13,1,19,0.01
2013-11-20,73.4,56.5,42.8,54.1,43.5,34.7,91,63,39,30.12,30.00,9,1,11,0.00
2013-11-21,69.1,63.5,56.5,65.3,61.3,54.0,96,93,87,30.17,30.08,14,4,17,0.01
2013-11-22,72.9,67.1,64.8,68.5,64.7,62.6,96,92,83,30.24,30.13,12,1,14,0.01
2013-11-23,64.8,57.3,48.4,62.8,55.1,42.8,95,93,81,30.35,30.16,10,1,14,0.00
2013-11-24,56.1,47.2,39.9,42.8,33.4,29.5,81,60,39,30.41,30.28,16,2,16,0.01
2013-11-25,48.6,45.5,41.7,46.9,37.8,27.9,96,76,58,30.32,29.90,11,1,12,0.00
2013-11-26,48.6,44.5,40.6,47.5,43.0,38.8,96,94,91,30.09,29.79,23,3,27,0.00
2013-11-27,51.1,41.5,34.5,38.7,33.0,27.1,93,74,45,30.43,30.09,14,2,17,0.01
2013-11-28,48.9,36.9,28.6,34.2,28.7,24.4,90,73,47,30.50,30.40,11,0,12,0.60
2013-11-29,61.7,42.4,28.2,36.5,31.3,26.1,94,69,31,30.54,30.42,11,1,14,0.01
2013-11-30,68.7,47.8,31.8,45.0,37.0,29.5,93,70,30,30.44,30.26,6,0,8,0.00
2013-12-1,71.2,54.5,39.7,54.3,46.1,37.6,94,75,45,30.28,30.01,10,0,10,0.00
2013-12-2,73.9,63.3,54.9,65.7,58.6,49.8,95,85,74,30.01,29.74,16,1,17,0.00
2013-12-3,79.3,69.1,63.0,70.0,65.7,61.5,98,90,65,29.79,29.70,14,1,16,0.05
2013-12-4,80.8,73.3,69.4,72.3,69.7,68.0,96,89,73,29.91,29.79,16,2,17,0.00
2013-12-5,83.1,74.9,72.0,73.2,71.7,70.0,96,90,71,30.00,29.89,19,2,23,0.08
2013-12-6,74.5,57.9,40.6,72.7,55.6,37.6,96,92,83,30.25,29.90,15,2,18,0.04
2013-12-7,40.6,38.5,36.0,37.9,35.6,32.9,94,89,85,30.35,30.24,10,1,13,0.01
2013-12-8,47.1,42.8,39.0,46.4,41.7,37.4,97,96,94,30.28,30.01,9,0,11,0.15
2013-12-9,52.0,48.8,45.9,50.9,47.9,45.1,97,97,96,30.14,30.05,8,0,10,0.56
2013-12-10,51.8,42.5,35.8,46.4,37.9,33.6,96,85,60,30.39,30.12,18,2,26,0.68
2013-12-11,51.6,43.7,34.3,45.3,38.3,31.6,91,81,73,30.43,30.32,8,0,9,0.30
2013-12-12,57.0,46.2,37.2,41.4,34.9,29.7,85,66,43,30.52,30.38,13,1,17,0.15
2013-12-13,59.9,48.5,37.2,54.7,39.8,27.3,87,72,59,30.38,29.96,12,2,14,0.07
2013-12-14,66.6,61.1,48.4,65.5,58.4,44.8,97,91,87,30.10,29.82,15,2,19,0.18
2013-12-15,55.6,46.7,40.1,44.8,39.0,35.4,88,75,54,30.32,30.10,13,2,16,0.18
2013-12-16,63.1,44.7,32.2,40.1,35.7,30.2,94,74,36,30.37,30.24,6,0,7,0.20
2013-12-17,66.2,47.8,33.6,44.2,38.9,31.5,100,74,42,30.36,30.24,9,0,10,0.00
2013-12-18,64.9,50.8,37.4,46.2,41.7,35.1,95,73,47,30.37,30.22,11,1,13,0.00
2013-12-19,73.4,60.9,46.2,60.8,54.3,42.6,91,80,62,30.22,30.02,21,2,22,0.00
2013-12-20,79.3,70.3,63.3,69.4,65.4,60.4,94,85,70,30.04,29.92,19,2,23,0.00
2013-12-21,78.8,73.9,68.7,71.4,69.6,66.9,94,87,74,29.93,29.70,27,5,33,0.00
2013-12-22,73.8,60.7,55.6,70.9,58.0,53.4,96,91,77,30.16,29.79,11,0,13,0.23
2013-12-23,55.4,44.9,35.1,53.4,39.0,30.2,93,81,60,30.50,30.16,13,2,15,0.14
2013-12-24,55.9,40.5,29.8,36.0,31.5,26.8,92,72,45,30.54,30.39,14,0,15,0.19
2013-12-25,50.4,40.6,31.6,35.2,30.0,25.9,80,67,45,30.42,30.30,13,1,14,0.00
2013-12-26,60.4,46.5,35.4,39.4,34.6,30.6,86,65,43,30.41,30.27,9,0,12,0.00
2013-12-27,56.5,49.1,42.6,39.9,37.1,34.7,80,64,46,30.43,30.28,9,0,12,0.00
2013-12-28,51.1,47.9,44.2,50.0,44.0,35.1,96,87,57,30.31,29.98,10,1,11,0.51
2013-12-29,65.1,51.4,44.2,48.2,44.9,40.6,97,81,43,30.12,29.99,9,0,9,0.13
2013-12-30,54.7,48.7,43.2,47.3,44.2,40.6,93,84,70,30.35,30.11,5,0,7,0.00
2013-12-31,46.4,43.2,40.5,41.9,38.5,35.8,92,83,77,30.43,30.32,7,0,8,0.04
2014-1-1,56.1,49.6,43.2,54.0,48.0,41.0,96,94,90,30.32,30.04,7,0,11,0.09
2014-1-2,56.1,52.0,37.9,55.2,44.0,26.2,97,76,45,30.37,29.96,20,3,20,0.06